Charlevoix, MI

2:45 PM EST on February 24, 2017 (GMT -0500)
Charlevoix Municipal

Weather History for KCVX - December, 2012

Change the Weather History Date:

Wednesday, December 12, 2012

  Actual Average Record
Temperature  
Mean Temperature 32 °F -  
Max Temperature 38 °F 35 °F 44 °F (2001)
Min Temperature 27 °F 26 °F 10 °F (2005)
Degree Days  
Heating Degree Days 32    
Moisture  
Dew Point 23 °F    
Average Humidity 70    
Maximum Humidity 83    
Minimum Humidity 65    
Precipitation  
Precipitation 0.00 in - - ()
Sea Level Pressure  
Sea Level Pressure 30.16 in    
Wind  
Wind Speed 13 mph (SW)    
Max Wind Speed 23 mph    
Max Gust Speed 30 mph    
Visibility 9 miles    
Events Snow    
Averages and records for this station are not official NWS values.
T = Trace of Precipitation, MM = Missing Value Source: NWS Daily Summary

Daily Weather History Graph

Daily Weather History Graph

Search for Another Location

Airport or City:

Trip Planner

Search our weather history database for the weather conditions in past years. The results will help you decide how hot, cold, wet, or windy it might be!

Date:

Astronomy

Dec. 12, 2012 Rise Set
Actual Time 8:11 AM EST 4:58 PM EST
Civil Twilight 7:37 AM EST 5:32 PM EST
Nautical Twilight 7:00 AM EST 6:09 PM EST
Astronomical Twilight 6:24 AM EST 6:45 PM EST
Moon 7:14 AM EST (12/12) 4:35 PM EST (12/12)
Length of Visible Light 9h 54m
Length of Day
8h 46m
Waning Crescent, 1% of the Moon is Illuminated
Dec 12
Waning Crescent
Dec 13
New
Dec 20
First Quarter
Dec 28
Full
Jan 4
Last Quarter

Hourly Weather History & Observations

Time (EST) Temp. Windchill Dew Point Humidity Pressure Visibility Wind Dir Wind Speed Gust Speed Precip Events Conditions
12:14 AM 30.6 °F 21.2 °F 21.9 °F 70% 29.99 in 10.0 mi WSW 11.5 mph 17.3 mph N/A   Overcast
12:35 AM 30.7 °F 20.0 °F 22.1 °F 70% 29.99 in 10.0 mi WSW 15.0 mph 20.7 mph N/A   Overcast
12:54 AM 30.0 °F 19.1 °F 25.5 °F 83% 30.00 in 3.0 mi West 15.0 mph 24.2 mph N/A Snow Light Snow
1:15 AM 30.2 °F 19.3 °F 24.6 °F 80% 30.01 in 4.0 mi WSW 15.0 mph 23.0 mph N/A Snow Light Snow
1:34 AM 30.4 °F 18.7 °F 23.7 °F 76% 30.01 in 5.0 mi West 17.3 mph 26.5 mph N/A Snow Light Snow
1:55 AM 30.2 °F 18.5 °F 23.0 °F 75% 30.02 in 7.0 mi WSW 17.3 mph 25.3 mph N/A   Overcast
2:14 AM 30.0 °F 17.2 °F 23.0 °F 75% 30.02 in 4.0 mi West 20.7 mph 25.3 mph N/A Snow Light Snow
2:35 AM 29.8 °F 17.0 °F 22.8 °F 75% 30.03 in 4.0 mi West 20.7 mph 28.8 mph N/A Snow Light Snow
2:54 AM 29.5 °F 17.6 °F 23.2 °F 77% 30.04 in 3.0 mi West 17.3 mph 25.3 mph N/A Snow Light Snow
3:14 AM 29.1 °F 15.7 °F 24.6 °F 83% 30.05 in 3.0 mi West 21.9 mph 25.3 mph N/A Snow Light Snow
3:34 AM 29.8 °F 16.3 °F 21.2 °F 70% 30.06 in 4.0 mi West 23.0 mph 29.9 mph N/A   Haze
3:55 AM 29.3 °F 15.6 °F 20.7 °F 70% 30.07 in 3.0 mi West 23.0 mph 28.8 mph N/A   Overcast
4:15 AM 29.1 °F 16.7 °F 19.4 °F 67% 30.08 in 7.0 mi West 18.4 mph 25.3 mph N/A   Mostly Cloudy
4:34 AM 29.1 °F 16.7 °F 20.7 °F 71% 30.08 in 10.0 mi West 18.4 mph 24.2 mph N/A   Overcast
4:55 AM 28.8 °F 16.6 °F 21.4 °F 74% 30.09 in 7.0 mi West 17.3 mph 24.2 mph N/A   Overcast
5:14 AM 28.6 °F 16.4 °F 21.4 °F 74% 30.09 in 10.0 mi West 17.3 mph 21.9 mph N/A   Overcast
5:35 AM 28.4 °F 17.0 °F 21.0 °F 74% 30.10 in 10.0 mi West 15.0 mph 23.0 mph N/A   Overcast
5:54 AM 28.6 °F 16.0 °F 20.7 °F 72% 30.11 in 10.0 mi West 18.4 mph - N/A   Overcast
6:15 AM 28.8 °F 17.0 °F 21.4 °F 74% 30.12 in 10.0 mi West 16.1 mph - N/A   Overcast
6:34 AM 28.4 °F 18.5 °F 21.2 °F 74% 30.13 in 10.0 mi WSW 11.5 mph - N/A   Overcast
6:55 AM 28.9 °F 17.3 °F 21.4 °F 73% 30.15 in 10.0 mi West 16.1 mph 20.7 mph N/A   Overcast
7:14 AM 28.8 °F 19.0 °F 21.2 °F 73% 30.15 in 10.0 mi West 11.5 mph - N/A   Overcast
7:34 AM 28.9 °F 19.8 °F 21.2 °F 73% 30.16 in 10.0 mi West 10.4 mph - N/A   Overcast
7:55 AM 28.8 °F 19.5 °F 19.6 °F 69% 30.16 in 10.0 mi WSW 10.4 mph - N/A   Overcast
8:14 AM 27.7 °F 17.6 °F 18.1 °F 67% 30.17 in 10.0 mi West 11.5 mph - N/A   Mostly Cloudy
8:35 AM 28.2 °F 20.2 °F 19.4 °F 70% 30.17 in 10.0 mi WSW 8.1 mph - N/A   Scattered Clouds
8:55 AM 28.8 °F 22.6 °F 21.0 °F 73% 30.18 in 10.0 mi SW 5.8 mph - N/A   Overcast
9:14 AM 29.7 °F 20.1 °F 21.0 °F 70% 30.19 in 10.0 mi WSW 11.5 mph - N/A   Overcast
9:35 AM 30.2 °F 20.8 °F 19.6 °F 65% 30.19 in 10.0 mi SW 11.5 mph 16.1 mph N/A   Overcast
9:55 AM 29.8 °F 20.9 °F 19.2 °F 65% 30.21 in 10.0 mi WSW 10.4 mph - N/A   Overcast
10:14 AM 30.2 °F 20.8 °F 19.8 °F 65% 30.21 in 10.0 mi WSW 11.5 mph - N/A   Overcast
10:35 AM 30.7 °F 21.4 °F 20.5 °F 66% 30.22 in 10.0 mi SW 11.5 mph 17.3 mph N/A   Overcast
10:55 AM 30.7 °F 22.6 °F 20.1 °F 65% 30.23 in 10.0 mi WSW 9.2 mph 18.4 mph N/A   Overcast
11:15 AM 31.1 °F 22.4 °F 21.0 °F 66% 30.24 in 10.0 mi WSW 10.4 mph 16.1 mph N/A   Overcast
11:35 AM 31.3 °F 23.3 °F 21.6 °F 67% 30.24 in 10.0 mi SW 9.2 mph - N/A   Scattered Clouds
11:55 AM 31.6 °F 23.7 °F 22.6 °F 69% 30.24 in 10.0 mi WSW 9.2 mph - N/A   Mostly Cloudy
12:15 PM 31.6 °F 23.1 °F 21.0 °F 65% 30.24 in 10.0 mi SW 10.4 mph 17.3 mph N/A   Mostly Cloudy
12:35 PM 31.6 °F 22.1 °F 22.5 °F 69% 30.24 in 10.0 mi SW 12.7 mph 16.1 mph N/A   Mostly Cloudy
12:54 PM 32.0 °F 25.6 °F 23.0 °F 69% 30.24 in 10.0 mi SW 6.9 mph - N/A   Overcast
1:15 PM 32.0 °F 24.2 °F 23.0 °F 69% 30.24 in 10.0 mi SSW 9.2 mph - N/A   Mostly Cloudy
1:35 PM 32.2 °F 23.8 °F 22.5 °F 67% 30.23 in 10.0 mi SSW 10.4 mph - N/A   Scattered Clouds
1:54 PM 32.4 °F 25.3 °F 22.5 °F 67% 30.23 in 10.0 mi SSW 8.1 mph - N/A   Clear
2:15 PM 32.9 °F 25.3 °F 22.5 °F 65% 30.22 in 10.0 mi SSW 9.2 mph - N/A   Clear
2:35 PM 32.4 °F 26.9 °F 22.1 °F 66% 30.22 in 10.0 mi South 5.8 mph - N/A   Clear
2:54 PM 32.2 °F 26.7 °F 22.6 °F 68% 30.22 in 10.0 mi SSE 5.8 mph - N/A   Clear
3:15 PM 32.2 °F 26.7 °F 22.8 °F 68% 30.22 in 10.0 mi SSE 5.8 mph - N/A   Clear
3:35 PM 32.9 °F 27.5 °F 22.5 °F 65% 30.21 in 10.0 mi South 5.8 mph - N/A   Clear
3:55 PM 32.9 °F 26.7 °F 22.6 °F 66% 30.21 in 10.0 mi SSE 6.9 mph - N/A   Clear
4:15 PM 33.1 °F 27.7 °F 23.0 °F 66% 30.21 in 10.0 mi SE 5.8 mph - N/A   Clear
4:35 PM 33.1 °F 28.7 °F 23.0 °F 66% 30.22 in 10.0 mi SE 4.6 mph - N/A   Clear
4:55 PM 32.5 °F 27.1 °F 23.0 °F 68% 30.21 in 10.0 mi SE 5.8 mph - N/A   Clear
5:15 PM 32.4 °F 26.9 °F 23.0 °F 68% 30.20 in 10.0 mi ESE 5.8 mph - N/A   Clear
5:34 PM 32.0 °F 26.4 °F 23.0 °F 69% 30.20 in 10.0 mi ESE 5.8 mph - N/A   Clear
5:54 PM 32.0 °F 26.4 °F 23.4 °F 70% 30.20 in 10.0 mi SE 5.8 mph - N/A   Clear
6:15 PM 32.0 °F 26.4 °F 23.5 °F 71% 30.20 in 10.0 mi SE 5.8 mph - N/A   Clear
6:34 PM 31.8 °F 25.4 °F 23.9 °F 73% 30.20 in 10.0 mi SE 6.9 mph - N/A   Clear
7:14 PM 32.0 °F 25.6 °F 25.0 °F 75% 30.19 in 10.0 mi SSE 6.9 mph - N/A   Mostly Cloudy
7:35 PM 34.3 °F 27.0 °F 27.0 °F 74% 30.19 in 10.0 mi South 9.2 mph - N/A   Scattered Clouds
7:54 PM 34.7 °F 28.1 °F 27.1 °F 74% 30.19 in 10.0 mi South 8.1 mph - N/A   Clear
8:15 PM 36.0 °F 29.6 °F 27.9 °F 72% 30.18 in 10.0 mi South 8.1 mph - N/A   Clear
8:34 PM 36.1 °F 28.7 °F 28.0 °F 72% 30.18 in 10.0 mi South 10.4 mph - N/A   Clear
8:55 PM 37.4 °F 29.3 °F 28.4 °F 70% 30.17 in 10.0 mi South 12.7 mph 19.6 mph N/A   Clear
9:15 PM 37.9 °F 29.2 °F 28.8 °F 70% 30.17 in 10.0 mi South 15.0 mph 24.2 mph N/A   Clear
9:35 PM 38.1 °F 29.5 °F 28.8 °F 69% 30.16 in 10.0 mi South 15.0 mph 19.6 mph N/A   Clear
9:54 PM 38.3 °F 29.3 °F 28.8 °F 69% 30.16 in 10.0 mi South 16.1 mph 25.3 mph N/A   Clear
10:34 PM 38.3 °F 29.7 °F 29.1 °F 70% 30.16 in 10.0 mi South 15.0 mph 23.0 mph N/A   Scattered Clouds
10:55 PM 38.3 °F 30.5 °F 29.1 °F 70% 30.16 in 10.0 mi South 12.7 mph 24.2 mph N/A   Mostly Cloudy
11:14 PM 38.5 °F 30.7 °F 28.8 °F 68% 30.16 in 10.0 mi South 12.7 mph 21.9 mph N/A   Overcast
11:35 PM 38.3 °F 29.0 °F 28.4 °F 68% 30.17 in 10.0 mi SSW 17.3 mph 21.9 mph N/A   Overcast
11:55 PM 38.7 °F 29.8 °F 28.0 °F 66% 30.17 in 10.0 mi SSW 16.1 mph 25.3 mph N/A   Overcast